Location: Shandelee
(41.8790°N, 74.8713°W)
Time: 04:34:54
(UTC+00:00)

Cosmos 1892 - Pass Details

Date: 29 October 2020
Orbit: 504 x 523 km, 82.5° (Epoch: 23 November)

Event Time Altitude Azimuth Distance (km) Brightness Sun altitude
Rises 23:15:26 0° 351° (N) 2,664 6.4 -15.1°
Reaches altitude 10° 23:17:35 10° 351° (N) 1,771 5.5 -15.5°
Maximum altitude 23:21:29 84° 262° (W) 532 2.7 -16.3°
Drops below altitude 10° 23:25:20 10° 175° (S) 1,756 5.4 -17.0°
Sets 23:27:28 0° 175° (S) 2,638 6.3 -17.4°
